TimeEST,TemperatureF,Dew PointF,Humidity,Sea Level PressureIn,VisibilityMPH,Wind Direction,Wind SpeedMPH,Gust SpeedMPH,PrecipitationIn,Events,Conditions,WindDirDegrees,DateUTC
12:54 AM,57.0,50.0,77,29.99,10.0,South,8.1,-,N/A,,Overcast,190,2012-12-05 05:54:00
1:54 AM,57.9,50.0,75,29.97,10.0,SSW,5.8,-,N/A,,Overcast,210,2012-12-05 06:54:00
2:54 AM,55.9,51.1,84,29.96,10.0,SW,6.9,-,0.00,,Overcast,230,2012-12-05 07:54:00
3:54 AM,55.9,48.9,77,29.98,10.0,West,6.9,-,N/A,,Mostly Cloudy,260,2012-12-05 08:54:00
4:54 AM,55.9,48.9,77,29.99,10.0,West,6.9,-,N/A,,Mostly Cloudy,280,2012-12-05 09:54:00
5:54 AM,57.0,45.0,64,30.01,10.0,NW,13.8,-,0.01,Rain,Light Rain,320,2012-12-05 10:54:00
6:54 AM,57.0,46.0,67,30.05,10.0,WNW,6.9,-,0.00,,Overcast,300,2012-12-05 11:54:00
7:54 AM,55.9,39.0,53,30.07,10.0,NW,15.0,23.0,N/A,,Mostly Cloudy,320,2012-12-05 12:54:00
9:54 AM,54.0,36.0,51,30.10,10.0,WNW,10.4,-,N/A,,Mostly Cloudy,290,2012-12-05 14:54:00
10:54 AM,54.0,33.1,45,30.09,10.0,NNW,13.8,-,N/A,,Mostly Cloudy,330,2012-12-05 15:54:00
11:54 AM,52.0,32.0,47,30.09,10.0,NW,11.5,-,N/A,,Mostly Cloudy,310,2012-12-05 16:54:00
12:54 PM,55.0,32.0,42,30.08,10.0,NW,17.3,-,N/A,,Scattered Clouds,320,2012-12-05 17:54:00
1:54 PM,55.9,30.9,39,30.07,10.0,NW,11.5,-,N/A,,Scattered Clouds,310,2012-12-05 18:54:00
2:54 PM,55.9,30.0,37,30.08,10.0,NW,16.1,-,N/A,,Scattered Clouds,310,2012-12-05 19:54:00
3:54 PM,53.1,28.9,40,30.11,10.0,NW,16.1,26.5,N/A,,Partly Cloudy,320,2012-12-05 20:54:00
4:54 PM,51.1,27.0,39,30.14,10.0,WNW,11.5,-,N/A,,Scattered Clouds,300,2012-12-05 21:54:00
5:54 PM,50.0,27.0,41,30.16,10.0,WNW,11.5,20.7,N/A,,Scattered Clouds,300,2012-12-05 22:54:00
6:54 PM,48.0,26.1,42,30.20,10.0,NW,25.3,31.1,N/A,,Overcast,320,2012-12-05 23:54:00
7:54 PM,43.0,23.0,45,30.25,10.0,North,17.3,25.3,N/A,,Scattered Clouds,350,2012-12-06 00:54:00
8:54 PM,41.0,18.0,40,30.26,10.0,NNW,15.0,26.5,N/A,,Scattered Clouds,340,2012-12-06 01:54:00
9:54 PM,39.9,18.0,41,30.26,10.0,NW,12.7,-,N/A,,Mostly Cloudy,320,2012-12-06 02:54:00
10:54 PM,39.0,19.0,45,30.27,10.0,NNW,8.1,-,N/A,,Mostly Cloudy,330,2012-12-06 03:54:00
11:54 PM,37.9,19.0,47,30.30,10.0,North,8.1,-,N/A,,Scattered Clouds,350,2012-12-06 04:54:00